Change the Weather History Date:

Monday, March 17, 2014

  Actual Average Record
Temperature  
Mean Temperature 41 °F 38 °F  
Max Temperature 49 °F 49 °F 73 °F (2007)
Min Temperature 33 °F 27 °F -9 °F (1943)
Degree Days  
Heating Degree Days 24 27  
Month to date heating degree days 535 495  
Since 1 July heating degree days 5808 5460  
Cooling Degree Days 0 0  
Month to date cooling degree days 0 0  
Year to date cooling degree days 0 0  
Moisture  
Dew Point 29 °F    
Average Humidity 66    
Maximum Humidity 89    
Minimum Humidity 42    
Precipitation  
Precipitation 0.03 in 0.03 in 0.72 in (1981)
Month to date precipitation 0.43 0.49  
Year to date precipitation 3.51 1.45  
Snow  
Snow T in 0.30 in 7.30 in (1981)
Month to date snowfall 5.0 5.5  
Since 1 July snowfall 95.2 40.0  
Snow Depth 0.00 in    
Sea Level Pressure  
Sea Level Pressure 29.53 in    
Wind  
Wind Speed 16 mph (NW)    
Max Wind Speed 31 mph    
Max Gust Speed 41 mph    
Visibility 10 miles    
Events Rain    
T = Trace of Precipitation, MM = Missing Value Source: NWS Daily Summary

Daily Weather History Graph

Daily Weather History Graph

Search for Another Location

Airport or City:

Trip Planner

Search our weather history database for the weather conditions in past years. The results will help you decide how hot, cold, wet, or windy it might be!

Date:

Astronomy

Mar. 17, 2014 Rise Set
Actual Time 7:22 AM MDT 7:22 PM MDT
Civil Twilight 6:53 AM MDT 7:52 PM MDT
Nautical Twilight 6:18 AM MDT 8:27 PM MDT
Astronomical Twilight 5:43 AM MDT 9:02 PM MDT
Moon 8:48 PM MDT (3/17) 7:36 AM MDT (3/17)
Length of Visible Light 12h 59m
Length of Day
12h 00m
Full, 99% of the Moon is Illuminated
Mar 17
Full
Mar 23
Last Quarter
Mar 30
New
Apr 7
First Quarter
Apr 15
Full

Hourly Weather History & Observations

Time (MDT) Temp. Windchill Dew Point Humidity Pressure Visibility Wind Dir Wind Speed Gust Speed Precip Events Conditions
12:53 AM 46.9 °F - 25.0 °F 42% 29.65 in 10.0 mi WSW 16.1 mph - N/A   Overcast
1:53 AM 46.9 °F - 24.1 °F 41% 29.59 in 10.0 mi WSW 15.0 mph - N/A   Overcast
2:53 AM 45.0 °F 37.9 °F 25.0 °F 46% 29.54 in 10.0 mi WSW 16.1 mph - N/A   Overcast
3:53 AM 46.0 °F 38.8 °F 24.1 °F 42% 29.46 in 10.0 mi WSW 18.4 mph - N/A   Overcast
4:53 AM 46.0 °F 39.9 °F 24.1 °F 42% 29.41 in 10.0 mi WSW 13.8 mph - N/A   Overcast
5:53 AM 46.0 °F 39.3 °F 24.1 °F 42% 29.35 in 10.0 mi WSW 16.1 mph - N/A   Overcast
6:53 AM 46.9 °F - 24.1 °F 41% 29.31 in 10.0 mi WSW 18.4 mph - N/A   Overcast
7:53 AM 46.9 °F - 25.0 °F 42% 29.33 in 10.0 mi West 16.1 mph - N/A   Overcast
8:53 AM 45.0 °F - 26.1 °F 48% 29.33 in 10.0 mi Calm Calm - N/A   Overcast
9:53 AM 42.1 °F 34.5 °F 26.1 °F 53% 29.38 in 10.0 mi NW 15.0 mph - N/A   Overcast
10:53 AM 45.0 °F 40.1 °F 27.0 °F 49% 29.38 in 10.0 mi North 9.2 mph - N/A   Overcast
11:53 AM 45.0 °F 38.5 °F 30.0 °F 56% 29.39 in 10.0 mi NW 13.8 mph - N/A   Overcast
12:53 PM 45.0 °F 40.1 °F 30.9 °F 58% 29.41 in 10.0 mi West 9.2 mph - N/A   Overcast
1:53 PM 45.0 °F 39.7 °F 33.1 °F 63% 29.41 in 10.0 mi WSW 10.4 mph - N/A   Overcast
2:53 PM 45.0 °F 39.3 °F 34.0 °F 65% 29.42 in 10.0 mi West 11.5 mph - N/A   Overcast
3:53 PM 45.0 °F 35.8 °F 33.1 °F 63% 29.43 in 10.0 mi NW 26.5 mph - N/A   Overcast
4:36 PM 41.0 °F 30.5 °F 34.0 °F 76% 29.47 in 10.0 mi North 26.5 mph 32.2 mph 0.00 in Rain Light Rain
4:53 PM 37.9 °F 26.8 °F 33.1 °F 83% 29.52 in 8.0 mi NNW 24.2 mph 34.5 mph N/A Rain Light Rain
5:53 PM 37.0 °F 27.7 °F 34.0 °F 89% 29.57 in 10.0 mi NNW 16.1 mph - 0.02 in Rain Light Rain
6:53 PM 36.0 °F 23.2 °F 32.0 °F 86% 29.64 in 10.0 mi North 28.8 mph 35.7 mph 0.01 in   Overcast
7:22 PM 36.0 °F 24.2 °F 30.9 °F 82% 29.64 in 10.0 mi North 24.2 mph 34.5 mph N/A   Overcast
7:53 PM 36.0 °F 23.9 °F 30.9 °F 82% 29.70 in 10.0 mi North 25.3 mph 29.9 mph N/A   Overcast
8:53 PM 36.0 °F 26.3 °F 30.9 °F 82% 29.76 in 10.0 mi North 16.1 mph - N/A   Overcast
9:53 PM 35.1 °F 23.3 °F 30.0 °F 82% 29.82 in 10.0 mi NNW 23.0 mph - N/A   Overcast
10:53 PM 35.1 °F 25.2 °F 30.0 °F 82% 29.84 in 10.0 mi NNW 16.1 mph - N/A   Overcast
11:42 PM 35.1 °F 24.5 °F 30.0 °F 82% 29.82 in 10.0 mi North 18.4 mph - N/A   Overcast
11:53 PM 34.0 °F 23.4 °F 30.9 °F 89% 29.87 in 10.0 mi North 17.3 mph - N/A   Overcast